Regional Weather Roundup
Issued by NWS Midland/Odessa, TX

Skip options and go directly to product.
Home | Oldest Version | Next Version | Current Version | All | Text Only | Save Text | Print | Product List | Glossary On

Skip product version selection by date and time.   
386
ASUS44 KMAF 250302
RWRMAF
MIDLAND AREA WEATHER ROUNDUP
NATIONAL WEATHER SERVICE MIDLAND TX
1000 PM CDT FRI OCT 24 2014

...IN SOUTHWEST TEXAS AND SOUTHEAST NEW MEXICO...

CITY           SKY/WX    TMP DP  RH WIND       PRES   REMARKS
ALPINE         CLEAR     61  51  70 SW8       30.31R
ANDREWS        FAIR      69  50  51 S7        30.17S
ARTESIA        NOT AVBL
BIG SPRING     CLEAR     68  51  54 SE9       30.16S
CARLSBAD       CLEAR     64  56  75 S10       30.14R
DRYDEN           N/A     68  62  81 NE7       30.15R
FORT STOCKTON  CLEAR     71  57  61 SE10      30.17R
GUAD PASS      NOT AVBL
HOBBS          CLEAR     63  46  55 S7        30.19S
MARFA          CLEAR     57  52  82 N5        30.29R
MIDLAND AIRPK  CLEAR     74  50  43 CALM      30.15S
MIDLAND INTL   CLEAR     70  45  40 S9        30.15S
ODESSA         CLEAR     70  48  45 CALM      30.16S
PECOS          CLEAR     67  54  63 E3        30.13R
PRESIDIO       FAIR      72  52  49 N8        30.14S
SEMINOLE       CLEAR     65  52  62 S5        30.18R
SNYDER         CLEAR     71  55  55 SE13      30.13S
WINK           CLEAR     70  51  51 E7        30.13R
$$
...OTHER STATIONS IN TEXAS...

CITY           SKY/WX    TMP DP  RH WIND       PRES   REMARKS
ABILENE        CLEAR     70  54  56 S8        30.12R
AMARILLO       CLEAR     65  45  48 S7        30.14R
AUSTIN         CLEAR     63  59  87 CALM      30.13R
BROWNSVILLE    CLEAR     72  66  81 N3        30.13R
CORPUS CHRISTI CLEAR     68  64  87 SE6       30.12R
DALLAS FTW     PTCLDY    74  60  61 S9        30.08S
DEL RIO        CLEAR     73  63  70 SE6       30.11R
EL PASO        CLEAR     73  46  38 CALM      30.19R
HOUSTON INT    CLEAR     62  58  86 CALM      30.14R
LUBBOCK        CLEAR     64  51  62 S9        30.14R
SAN ANGELO     CLEAR     68  53  58 S8        30.13R
SAN ANTONIO    CLEAR     74  59  59 SE3       30.14R
WACO           CLEAR     70  60  70 S7        30.11R
WICHITA FALLS  NOT AVBL
$$
...OTHER LOCATIONS IN NEW MEXICO...

CITY           SKY/WX    TMP DP  RH WIND       PRES   REMARKS
ALAMAGORDO     NOT AVBL
ALBUQUERQUE    CLEAR     65  34  31 CALM      30.26R
CANNON AFB     CLEAR     62  42  47 SW7       30.19R
CLOVIS         CLEAR     57  39  51 SW10      30.21R
HOLLOMAN AFB   PTCLDY    62  48  60 E5        30.19R
ROSWELL        CLEAR     62  55  77 S8        30.16R
RUIDOSO        CLEAR     55  39  54 CALM      30.38R
SANTA FE       CLEAR     48  26  42 NW6       30.29S
TRUTH OR CONSE CLEAR     70  41  34 SW7       30.23R
TUCUMCARI      CLEAR     64  41  42 SW8       30.14R
$$

USA.gov is the U.S. government's official web portal to all federal, state and local government web resources and services.